Wind_Speed
15 17 19 20 21 22 22 22 22 22 22 23 23 22 22 23 24 24 24 26 25 21 19 17 13 10 10 11 10 11 12 12 12 14 15 15 16 15 16 17 19 20 20 21 21 21 20 19 19 19 19 19 19 19 19 19 18 18 18 19 19 19 18 18 19 19 19 18 18 18 17 16 16 15
15 16 18 19 21 21 20 21 22 22 23 24 25 25 24 23 23 24 25 28 29 26 22 20 15 12 10 11 11 11 12 12 12 14 14 15 15 14 14 16 17 18 19 20 20 20 20 19 18 18 19 19 19 19 19 18 18 17 18 18 19 19 18 18 19 19 18 18 18 18 17 16 15 15
16 17 18 19 21 20 19 20 22 21 23 25 25 25 26 26 25 25 25 29 32 30 27 23 19 15 13 12 12 12 12 13 13 14 15 15 14 14 14 15 15 17 18 19 19 19 19 19 18 18 18 18 18 18 18 17 17 17 18 18 18 18 18 18 18 18 17 17 17 17 16 16 16 17
17 17 17 18 19 19 19 21 21 21 22 23 23 24 26 27 27 27 27 30 33 33 30 28 25 20 17 16 15 14 13 14 14 15 15 15 15 15 15 15 15 16 16 17 18 18 19 19 19 18 18 18 18 18 18 18 18 18 18 17 17 17 17 17 17 17 17 16 16 15 16 16 17 18
18 18 18 18 17 16 17 19 19 20 21 21 23 23 25 27 27 28 30 31 33 34 32 30 29 25 23 21 19 17 16 15 15 16 16 15 15 16 16 16 17 16 16 16 16 17 18 18 18 18 19 19 19 20 19 19 18 18 18 18 17 17 17 17 17 18 17 17 16 17 17 17 19 20
18 19 19 18 17 16 17 18 18 19 20 21 22 23 24 26 28 29 31 29 29 32 31 29 29 28 27 25 23 20 18 16 17 18 17 16 16 16 17 17 17 17 17 17 17 17 18 18 18 18 19 19 19 19 19 18 19 19 19 19 19 19 19 19 19 19 19 19 19 19 19 19 20 21
19 20 20 20 19 18 18 19 18 19 20 21 22 23 24 25 27 28 29 28 27 29 30 29 29 29 28 28 26 24 22 20 19 19 18 17 17 17 17 18 17 16 17 17 18 18 19 19 18 18 18 18 17 17 18 18 19 19 20 20 20 20 20 20 20 21 21 21 21 20 20 21 22 22
20 21 21 21 21 20 20 20 20 20 21 21 22 23 23 24 26 27 27 26 26 27 29 30 29 29 28 28 27 25 25 23 22 20 19 19 19 18 18 18 18 17 17 18 18 19 19 19 19 18 18 17 17 17 18 18 19 20 20 20 20 19 19 19 20 20 20 20 20 21 21 22 22 23
21 21 21 21 21 21 21 21 21 21 22 21 21 22 23 24 25 26 27 26 26 27 30 31 31 30 28 28 27 26 25 25 24 22 21 20 20 20 20 20 20 19 19 18 18 18 18 19 19 19 19 19 18 18 19 20 20 21 21 20 20 19 19 19 20 20 20 20 20 20 20 21 22 23
22 22 22 22 21 21 21 22 22 21 21 22 21 21 22 23 24 25 27 27 27 28 31 32 32 32 30 30 29 27 26 27 27 26 24 23 22 22 22 22 22 21 20 19 18 18 18 18 18 19 19 20 19 19 20 20 21 22 22 21 20 20 20 20 21 21 21 21 21 21 21 22 23 23
22 23 23 23 22 22 22 22 23 22 22 23 23 22 22 22 23 24 26 27 27 28 30 30 32 33 32 32 31 29 27 27 28 28 27 27 25 24 23 23 23 22 21 20 19 19 18 17 18 18 19 20 20 20 20 20 21 21 22 21 21 21 21 21 21 21 22 22 22 22 23 24 24 24
22 23 23 23 23 23 23 23 23 23 23 23 23 23 23 23 23 23 24 24 25 26 28 29 30 31 32 33 33 32 30 30 31 29 28 29 29 26 24 23 23 23 23 22 21 20 19 19 18 18 19 19 20 20 20 20 20 20 20 20 20 20 21 21 21 21 22 23 23 23 23 23 24 24
21 22 23 24 24 24 24 24 24 24 24 24 24 23 22 22 22 22 22 23 24 24 26 28 30 30 31 33 34 34 33 33 32 30 29 31 30 27 26 24 24 24 24 23 22 21 20 20 19 19 19 19 19 19 19 19 20 20 20 20 20 21 21 21 21 21 22 22 23 22 22 23 23 23
22 22 23 24 24 25 24 24 24 24 24 24 24 23 22 22 22 22 22 23 24 25 25 27 28 30 31 33 33 34 35 34 33 31 31 32 32 29 28 26 25 25 25 24 23 22 21 21 21 20 20 19 19 19 19 19 19 20 20 21 21 22 22 22 21 21 21 22 22 22 22 23 23 23
23 23 23 23 24 25 25 25 25 25 24 25 25 24 23 23 23 23 23 24 24 25 27 28 29 29 31 32 32 32 34 34 34 34 33 33 33 32 31 29 26 25 25 24 24 22 21 21 22 21 20 19 19 18 18 18 18 20 21 21 21 21 22 21 21 21 21 22 23 22 22 22 22 22
25 25 24 24 24 25 25 25 26 26 26 26 26 25 25 25 24 24 25 25 25 25 27 30 30 30 31 33 32 31 31 32 33 33 34 34 35 35 34 32 29 25 24 24 24 22 21 21 21 21 20 18 18 17 18 18 19 20 20 20 20 20 20 21 21 21 21 21 21 21 21 21 21 20
26 26 26 26 26 25 25 25 25 26 26 26 26 27 27 27 26 26 26 27 27 27 28 30 31 31 32 34 34 32 30 29 29 31 33 34 35 36 37 36 33 28 25 26 27 25 23 21 21 20 19 17 17 17 18 18 19 19 19 18 18 18 19 19 19 20 20 20 20 20 19 19 19 19
26 26 26 27 27 26 25 25 25 26 27 27 27 27 28 28 28 28 27 28 28 29 29 31 32 32 32 33 33 32 30 29 28 29 31 32 33 35 36 36 35 32 29 28 29 29 26 23 22 21 19 18 19 18 18 18 18 18 18 18 18 18 18 18 19 19 19 19 19 18 18 17 17 17
25 26 26 27 28 27 27 25 25 25 26 27 27 28 28 28 29 29 28 28 29 30 31 32 33 33 32 32 32 32 31 30 29 29 30 31 31 32 33 33 34 35 33 31 31 32 30 26 24 23 21 20 19 19 18 18 17 18 18 18 18 17 18 18 18 18 18 18 18 17 17 16 16 17
25 25 25 26 27 28 28 27 26 25 25 26 27 27 28 28 29 29 29 28 28 29 30 31 32 33 32 32 33 33 32 32 31 30 31 32 32 33 34 34 35 35 35 34 33 34 33 30 27 24 22 21 20 19 19 18 18 18 18 18 18 17 17 18 18 18 17 17 18 17 16 15 15 15
24 24 24 25 26 27 27 27 26 25 25 26 27 27 28 28 29 30 30 29 29 30 30 30 31 31 30 31 32 33 33 34 33 31 32 34 34 35 37 37 37 36 36 36 34 35 35 33 29 26 24 23 21 21 21 20 20 20 20 19 19 18 18 18 17 17 17 17 17 17 15 14 14 14
24 25 24 24 25 26 26 26 25 25 25 26 26 27 27 28 29 29 29 30 31 31 31 31 30 29 29 29 30 31 32 33 33 33 35 36 35 36 38 39 38 37 37 37 35 35 36 34 31 28 26 24 23 22 22 22 22 22 22 21 20 19 19 18 18 17 17 17 17 15 14 14 14 14
25 25 25 25 25 25 25 25 25 24 25 26 27 27 27 28 29 29 29 29 29 30 31 30 30 30 29 28 29 29 30 31 32 33 35 36 36 37 39 41 40 38 39 38 37 37 37 35 32 30 27 25 24 23 23 23 23 23 23 22 21 21 19 19 18 18 17 17 16 15 15 15 14 15
27 27 27 26 25 25 25 24 24 25 25 26 27 27 28 29 30 29 29 28 27 28 29 29 29 30 30 29 28 28 28 30 32 33 35 37 38 39 41 41 40 41 42 39 36 36 37 35 32 30 28 27 25 23 22 23 22 22 22 22 22 21 20 19 19 18 18 17 16 15 15 15 16 17
30 29 28 27 26 25 25 25 25 25 25 25 26 26 28 29 28 28 28 29 28 29 29 29 28 28 28 28 28 28 28 29 30 32 34 37 39 40 42 42 41 43 45 41 35 33 33 32 31 30 29 29 27 26 24 23 23 22 21 21 21 21 20 19 18 18 18 17 17 16 14 16 19 17
32 31 30 29 28 27 26 25 25 25 25 25 26 26 27 27 26 26 27 28 29 29 29 28 28 28 27 27 27 29 29 30 30 30 31 35 38 41 42 41 42 44 45 43 39 35 33 32 31 30 29 29 27 27 26 25 24 23 22 22 22 21 21 19 18 18 18 18 17 16 16 19 21 17
32 32 32 31 29 28 28 27 26 26 26 26 26 26 26 26 25 25 26 27 28 29 29 28 28 29 29 28 28 29 31 32 32 30 29 30 33 36 39 39 40 41 41 40 40 38 36 35 33 31 30 29 26 26 26 25 24 23 22 22 22 22 22 20 19 19 19 19 17 17 21 22 21 18
31 33 33 32 31 30 30 30 28 28 28 28 28 27 27 26 25 25 26 27 27 29 29 29 28 29 30 31 32 32 32 32 31 30 30 28 26 28 32 35 38 40 40 39 39 39 38 36 33 32 32 30 28 27 27 27 26 24 23 22 23 23 23 22 20 20 20 19 18 22 26 27 24 22
30 32 33 32 32 31 31 31 30 30 30 30 29 28 27 27 26 26 27 27 27 29 30 30 30 29 30 31 32 31 30 31 30 31 31 29 24 23 25 28 33 38 40 40 41 41 40 38 34 32 33 32 30 29 29 28 27 25 23 23 24 24 23 23 22 21 21 21 21 25 28 29 28 28
28 30 31 31 31 31 31 31 31 32 32 32 31 30 28 28 28 27 27 28 29 31 31 30 30 31 30 30 30 29 30 30 31 31 31 29 26 24 24 24 28 32 35 39 41 41 41 41 37 35 35 34 31 30 29 29 28 26 25 24 24 23 23 23 23 22 22 22 23 28 32 31 30 29
26 26 27 28 29 30 30 31 31 32 33 33 33 32 30 30 29 28 28 29 30 31 32 31 30 30 30 30 30 29 29 30 31 31 31 29 27 26 26 26 27 28 29 32 36 37 38 39 39 37 35 34 32 31 30 29 29 27 26 25 25 25 24 24 23 23 23 22 24 31 35 33 29 29
27 26 25 26 26 27 27 29 29 30 31 32 33 32 31 30 29 28 28 29 30 31 31 31 30 29 29 30 30 28 27 27 28 28 29 29 27 27 27 27 28 28 26 28 32 34 35 36 37 36 34 34 34 33 31 30 30 29 28 27 27 27 26 25 24 23 23 23 25 30 33 32 31 32
28 28 27 27 26 25 25 26 27 27 28 29 30 31 30 28 27 26 27 28 30 30 29 29 29 28 27 28 27 25 25 25 23 22 24 25 25 26 27 28 28 28 28 28 30 33 34 34 35 34 33 34 36 35 33 31 31 30 30 30 29 28 27 26 25 26 26 27 28 31 33 34 34 34
28 29 30 28 26 25 26 26 27 27 27 26 26 27 27 25 25 25 26 27 28 27 26 26 26 25 25 25 24 24 25 24 22 21 21 23 24 25 27 29 30 30 30 30 30 31 31 31 33 33 33 35 36 35 33 32 31 31 32 31 29 27 26 26 27 29 30 31 33 35 38 38 36 35
28 31 31 28 25 25 26 27 28 28 27 25 24 23 23 23 23 24 25 26 25 23 23 24 24 23 23 23 23 24 25 25 23 21 21 22 24 26 27 29 30 30 30 31 31 30 29 28 29 31 33 35 34 32 31 31 31 31 31 30 28 27 27 27 28 29 31 33 35 39 43 42 38 36
31 31 30 27 25 26 27 27 26 26 25 24 22 20 21 23 23 24 25 25 24 23 23 23 24 23 23 22 22 22 24 25 24 23 22 21 23 24 24 25 26 27 28 28 29 30 29 28 29 30 32 31 29 28 28 28 27 28 29 29 27 25 24 25 25 26 29 33 36 40 42 42 39 37
33 32 31 29 28 29 28 26 25 24 24 23 22 21 23 24 24 24 24 24 23 23 24 25 25 24 23 23 22 22 22 23 24 24 24 23 22 23 22 22 22 24 24 23 23 25 27 28 29 30 29 27 24 24 24 22 21 23 25 25 24 22 21 22 23 25 29 33 34 35 35 36 36 33
32 31 31 31 30 30 29 27 24 23 23 23 23 24 24 24 24 24 23 22 21 22 24 26 27 25 23 24 25 24 23 23 23 24 24 23 23 24 24 23 23 23 23 22 22 22 24 24 25 27 27 26 24 25 26 23 20 21 22 23 23 22 21 22 24 28 31 32 31 30 31 32 33 30
28 29 30 31 30 29 27 26 24 23 22 23 23 23 23 23 23 23 22 21 21 22 24 26 27 24 23 23 24 24 24 23 23 24 24 23 24 25 25 25 25 25 25 24 24 24 23 23 23 25 26 27 27 28 27 24 21 20 21 21 21 22 24 25 27 31 34 34 36 37 36 35 34 32
23 25 26 27 26 24 22 22 22 22 21 21 22 22 21 21 22 23 22 22 21 22 23 24 25 25 24 25 25 25 24 24 24 24 24 24 25 25 25 26 27 27 26 25 24 25 24 23 22 23 23 24 24 24 24 23 20 19 21 21 20 21 24 23 26 32 39 42 42 41 39 37 35 32
19 20 22 23 23 21 21 21 21 20 20 19 20 20 19 19 21 22 21 22 22 22 22 23 23 24 24 24 23 23 23 22 22 21 21 23 25 25 25 26 27 27 26 25 25 25 25 23 22 21 21 21 23 24 24 22 20 20 23 24 23 23 22 21 24 31 39 43 41 38 37 35 33 30
16 18 20 21 21 21 21 20 19 18 18 18 17 17 17 17 18 19 21 23 23 23 22 21 21 21 20 19 19 19 20 21 20 19 18 20 23 25 26 26 26 25 24 24 24 23 23 22 20 19 21 23 25 25 25 25 25 25 27 27 28 27 26 25 27 33 39 41 38 36 36 34 33 31
17 19 19 19 20 20 20 19 18 17 17 17 16 16 15 15 16 18 20 19 17 16 16 16 15 16 16 17 18 20 22 23 23 23 22 22 23 23 24 25 24 21 20 20 20 19 18 17 15 16 18 21 22 23 25 28 30 30 31 33 34 34 35 37 39 41 43 42 37 32 30 28 27 27
20 20 20 19 19 19 19 18 18 18 18 18 17 15 15 16 17 17 15 11 9 9 11 11 12 14 16 18 20 21 22 23 24 25 26 26 26 25 25 25 23 20 19 19 18 17 16 14 13 14 15 17 20 22 25 30 33 35 37 40 42 44 44 44 45 44 42 40 36 30 25 21 18 20
23 22 20 18 17 16 17 17 17 17 16 16 15 15 16 17 16 11 7 4 5 7 9 10 12 12 13 13 15 16 18 19 21 23 24 25 25 24 23 22 22 21 20 19 18 17 17 17 16 15 16 18 21 23 28 34 37 40 43 45 45 45 44 42 41 40 37 32 27 23 20 18 18 22
Wind_Direction
273 265 257 255 255 255 254 253 253 254 256 256 254 252 253 258 261 263 265 266 265 264 267 270 273 273 274 281 289 288 282 280 280 275 272 270 267 263 257 253 249 249 249 250 251 252 251 252 254 254 255 255 257 259 262 266 267 267 268 269 269 268 269 270 272 271 269 268 268 268 268 265 263 262
284 274 265 261 260 259 260 261 258 256 255 253 250 247 247 251 255 258 263 267 267 265 264 266 269 274 279 281 283 285 284 282 280 276 274 271 269 266 261 256 252 250 249 250 251 251 251 251 253 253 253 255 257 259 262 264 265 266 265 265 267 268 268 268 268 269 267 266 266 267 266 263 261 261
284 280 275 270 267 266 266 265 262 258 255 254 251 249 247 247 250 255 262 266 266 265 264 265 265 269 277 279 276 279 282 281 277 275 275 274 271 266 260 257 255 252 251 251 251 252 252 252 252 252 252 254 257 259 262 263 264 265 265 265 266 268 268 267 267 268 268 267 267 265 263 262 261 262
281 281 280 277 274 272 270 267 264 262 260 259 257 254 252 251 251 253 257 261 264 265 266 267 266 266 271 274 273 273 276 277 274 271 273 274 273 268 262 258 256 255 254 253 253 253 253 254 254 253 253 254 257 260 263 265 267 267 266 266 267 268 269 270 270 270 271 270 269 266 263 262 262 263
281 281 281 278 276 274 273 271 269 266 265 264 262 260 258 257 254 254 255 258 263 266 266 267 268 266 268 269 269 269 270 270 270 270 271 271 271 272 270 265 260 258 257 256 255 254 254 255 256 256 255 255 258 261 264 266 267 267 267 266 266 267 269 270 271 271 271 269 268 267 266 264 264 265
278 278 278 278 277 275 272 271 271 270 269 267 266 264 261 260 258 257 256 257 262 266 267 267 268 268 267 266 265 267 268 267 266 265 266 270 271 273 274 271 266 263 260 260 258 257 257 257 258 257 256 256 259 261 263 263 264 265 266 266 267 268 268 269 270 271 271 270 270 270 270 270 271 270
273 273 273 273 273 273 271 270 269 269 269 268 267 265 261 260 259 258 258 257 259 265 267 266 266 266 265 264 263 264 266 266 264 261 262 266 269 271 272 271 269 266 265 264 262 259 258 258 257 256 254 255 258 260 262 263 264 265 266 267 268 268 268 269 270 272 273 273 274 275 275 275 275 273
272 271 271 269 268 269 270 271 270 270 271 270 270 268 263 260 258 258 260 260 259 262 265 264 263 263 262 261 260 260 262 263 262 259 259 261 264 268 271 270 269 268 267 267 264 260 258 256 253 252 251 253 256 259 262 263 265 266 267 267 267 268 270 271 272 274 275 276 276 276 275 275 275 273
271 271 270 269 268 267 268 269 269 271 273 272 272 271 268 265 262 262 262 262 261 261 263 263 262 261 260 259 256 254 256 259 259 257 258 260 262 264 267 268 269 268 267 267 264 260 258 255 252 251 251 254 258 261 264 265 266 267 268 268 268 268 270 271 271 272 274 275 276 276 275 274 273 272
270 270 270 269 267 266 266 266 267 269 270 272 272 272 271 269 268 266 265 265 263 262 263 265 264 262 260 259 257 253 251 253 255 256 258 260 261 261 263 266 269 270 268 267 263 259 257 256 254 253 254 256 259 262 265 267 268 268 268 268 268 269 270 271 271 272 272 273 273 274 274 273 272 272
268 269 269 269 267 266 265 265 265 266 267 269 271 272 273 272 270 269 268 267 266 264 263 264 264 263 261 259 259 255 251 249 251 252 255 258 260 260 261 264 267 269 268 266 262 259 257 255 253 253 254 256 258 260 263 267 269 269 270 270 271 272 273 273 273 273 273 273 273 273 273 272 271 271
267 268 268 269 269 268 266 265 264 266 267 269 269 270 271 272 272 271 270 268 266 265 264 264 264 264 262 260 259 258 253 249 248 249 252 256 260 262 263 263 263 265 265 263 262 259 256 255 254 253 254 255 257 260 262 265 268 269 271 272 272 273 273 273 273 274 275 275 274 273 272 271 270 270
267 266 266 268 268 269 268 266 264 264 266 268 268 268 268 269 270 271 270 268 266 265 265 264 264 264 262 260 258 257 255 252 251 251 252 255 257 260 263 262 258 259 261 261 261 259 256 256 257 256 256 257 258 259 261 262 265 267 269 271 272 273 273 273 274 275 276 276 275 273 272 272 273 273
270 267 265 266 267 268 268 268 267 265 265 266 266 265 266 266 268 269 269 268 266 265 265 265 266 267 265 263 260 258 257 256 255 254 253 254 255 257 261 260 256 254 256 260 260 258 255 256 259 260 261 262 262 261 260 261 263 264 266 267 270 273 273 273 274 274 274 274 275 274 273 274 275 276
276 273 270 267 266 267 267 268 268 267 266 265 265 265 265 266 266 268 268 268 266 266 266 267 268 267 267 265 264 262 260 258 256 254 254 255 255 256 258 260 258 252 252 258 260 259 256 256 259 262 264 265 264 261 259 259 259 260 262 265 268 271 273 273 273 272 273 274 274 274 274 274 275 275
279 278 276 272 270 268 267 266 267 267 266 265 265 266 265 265 264 264 266 266 265 265 266 267 268 269 269 267 266 265 263 260 258 256 255 255 256 256 257 258 259 254 252 257 260 259 259 258 258 261 262 263 262 260 257 256 257 259 260 263 266 270 272 273 272 272 273 273 273 273 273 272 273 272
278 278 278 276 274 272 270 268 267 267 266 266 265 265 265 265 263 262 262 262 263 264 264 265 265 266 268 268 267 265 265 265 262 258 256 255 255 257 257 257 258 257 254 255 257 258 258 258 257 257 258 260 259 258 257 256 256 256 256 259 264 268 270 271 271 272 272 272 272 271 272 272 271 269
280 278 278 277 277 277 274 271 269 269 269 268 267 266 266 266 264 263 261 261 261 262 262 264 264 264 265 267 268 267 266 266 263 260 259 257 256 258 259 260 260 259 255 253 254 254 254 255 256 255 255 258 258 257 257 255 253 251 251 256 261 265 268 269 269 270 271 271 270 270 270 268 266 264
283 281 278 277 277 278 277 274 272 271 271 271 270 268 268 268 267 265 263 262 260 260 261 263 264 265 266 267 267 268 267 265 263 261 260 259 258 258 260 260 258 256 254 252 251 251 251 251 253 254 255 257 257 255 253 251 248 247 249 254 259 264 268 269 270 270 269 268 268 267 267 264 260 262
283 282 280 277 276 276 276 275 274 272 272 272 271 270 270 269 268 266 265 265 263 262 262 263 264 265 265 266 266 266 265 263 262 262 261 259 256 255 255 254 253 252 251 248 247 249 250 250 251 251 252 255 255 252 249 247 246 246 248 253 258 264 269 270 269 268 267 266 265 265 264 260 257 258
281 281 281 279 277 276 275 275 274 272 271 270 270 270 270 270 269 268 267 266 266 266 266 266 267 267 265 265 265 264 263 261 260 261 260 258 255 253 252 251 249 248 248 246 244 246 248 248 249 249 249 252 253 250 247 244 243 245 247 251 256 263 267 268 267 266 265 265 263 262 260 255 253 254
278 278 279 279 279 278 277 276 276 274 272 270 269 269 269 269 270 270 269 268 268 268 269 268 269 269 268 266 264 262 261 259 258 256 256 255 255 253 251 249 248 248 248 245 243 243 244 246 247 247 247 250 250 248 247 245 243 244 247 250 255 261 264 266 266 264 263 262 259 256 251 250 253 249
278 276 276 277 278 278 278 277 276 274 272 271 271 271 270 270 269 269 270 271 271 272 273 272 271 269 268 267 265 263 259 257 255 254 253 253 254 253 251 249 246 246 247 244 241 240 242 244 244 243 244 249 250 248 246 245 244 245 247 250 254 258 262 265 265 262 262 261 257 252 247 250 253 240
279 277 276 275 276 277 277 276 274 272 271 271 271 271 270 269 269 270 271 272 273 273 274 274 273 271 269 267 265 264 261 256 254 253 252 251 251 251 251 249 245 242 243 243 243 241 241 241 242 241 244 248 250 249 247 245 245 246 248 250 252 255 259 261 260 259 260 256 251 252 251 245 238 230
278 277 277 276 275 277 277 276 275 273 272 271 270 269 268 269 270 272 273 273 273 273 273 273 272 271 269 269 268 266 263 258 256 255 254 253 251 251 251 250 246 243 241 241 242 243 240 239 240 242 245 245 246 248 247 245 244 245 246 248 248 251 254 255 255 256 256 252 248 249 243 226 221 229
279 276 275 274 275 276 277 277 275 274 273 271 269 268 268 269 269 270 271 273 273 274 273 272 271 268 267 268 268 267 266 261 258 259 259 257 253 251 252 251 248 244 242 240 241 242 242 241 241 242 242 241 242 244 245 245 246 245 246 246 246 249 251 251 252 253 252 251 247 238 223 215 219 232
281 277 273 271 272 273 274 275 275 274 273 271 269 269 268 268 267 267 267 268 270 272 272 271 269 267 266 265 265 269 272 268 262 262 266 266 259 254 254 253 249 246 245 243 243 243 245 245 244 241 240 239 239 240 242 246 247 245 245 247 247 250 251 249 250 250 249 249 242 222 212 214 221 225
281 278 274 271 270 269 269 270 270 270 270 270 270 269 268 267 267 267 267 268 269 271 271 268 266 266 265 265 266 270 276 275 270 269 272 274 269 261 257 253 248 245 244 244 243 243 243 244 243 241 243 244 242 242 244 247 249 247 246 247 249 251 252 250 249 248 247 245 233 218 215 217 219 217
278 277 275 273 271 268 268 268 268 267 267 269 270 270 269 268 267 267 268 270 271 272 271 268 266 264 265 266 267 268 271 273 273 272 272 273 272 267 263 256 248 243 241 241 242 242 243 244 243 242 244 245 243 243 245 247 249 249 246 247 250 253 253 252 249 248 247 242 229 224 228 229 225 218
279 277 275 274 272 270 269 268 268 267 267 268 269 270 269 270 269 268 269 271 272 272 272 270 267 266 267 268 268 267 268 269 269 269 269 270 268 265 263 261 255 250 244 240 241 243 246 247 246 243 244 244 242 242 246 248 250 250 248 248 249 250 252 252 249 246 247 243 231 226 228 228 226 217
293 286 279 274 271 270 269 268 268 268 267 267 268 269 268 269 269 269 270 270 271 271 270 269 268 268 270 270 269 268 268 268 268 268 266 266 265 262 259 259 259 258 253 245 243 244 246 248 246 240 238 241 242 242 244 247 250 249 248 249 249 249 252 253 250 249 247 242 236 229 220 213 213 208
302 297 288 280 274 269 268 270 270 269 268 268 269 269 269 269 269 269 268 268 268 267 266 266 267 267 268 269 268 268 268 268 267 264 260 258 258 258 257 255 254 257 257 253 249 246 245 246 246 241 237 238 241 242 242 244 246 247 248 250 251 251 252 251 250 251 246 237 235 230 217 207 206 200
299 297 292 287 283 278 273 271 269 268 269 271 271 270 271 270 268 266 265 265 266 265 263 263 265 267 270 270 268 265 265 266 264 256 250 250 253 254 254 253 251 252 254 252 251 249 245 243 243 242 240 239 239 241 241 242 243 244 246 250 251 249 250 251 251 251 246 238 231 221 208 204 203 196
293 295 292 288 286 286 284 279 276 274 274 274 272 271 271 269 267 264 263 263 265 264 262 261 263 265 268 270 267 262 262 264 262 253 247 247 248 251 252 249 245 245 248 248 247 248 247 243 240 238 237 237 238 239 240 241 244 245 247 250 250 248 250 253 251 246 242 238 229 214 201 196 195 190
287 291 292 289 287 288 287 283 280 279 276 273 271 271 270 267 265 263 262 263 263 263 261 261 262 261 261 262 262 260 261 263 262 257 252 249 247 249 252 249 244 243 246 247 246 243 240 238 237 234 232 232 233 235 238 241 243 245 246 245 243 243 244 245 241 232 224 218 212 204 196 190 188 187
282 284 289 292 291 290 288 283 279 277 274 270 267 268 268 266 263 262 262 263 263 260 256 256 257 258 257 257 258 260 261 261 259 256 253 251 249 251 254 255 252 249 247 245 244 241 237 236 236 235 233 230 228 230 234 236 237 240 242 241 238 238 239 239 235 226 214 202 195 193 189 181 175 175
278 279 284 288 289 288 287 285 280 275 271 267 264 264 265 264 262 262 263 263 264 259 252 249 250 253 253 254 257 261 263 262 259 256 253 252 251 251 252 252 251 249 247 244 243 241 239 238 237 236 234 229 225 226 229 230 230 234 237 237 237 236 235 234 227 214 204 196 191 187 178 163 152 151
273 274 278 282 282 282 283 283 279 272 267 265 263 263 264 263 263 264 264 264 262 257 249 245 247 251 252 253 255 257 260 261 260 257 255 252 251 251 250 248 246 245 245 245 244 243 240 239 237 236 235 232 229 231 232 229 225 225 229 235 236 232 228 227 217 202 192 185 175 165 157 148 143 145
272 272 275 277 278 280 281 281 278 273 269 266 264 264 266 268 268 269 268 267 263 258 251 246 247 249 251 251 253 255 256 256 255 253 252 250 249 249 250 250 248 246 243 241 241 241 242 241 239 238 238 239 237 237 236 232 225 221 223 229 232 229 224 217 207 194 184 175 165 157 151 150 150 154
283 281 281 281 282 281 280 280 280 276 269 265 266 270 272 273 275 276 276 273 268 262 256 251 249 251 253 254 255 256 256 255 253 250 249 249 248 249 251 251 250 246 241 238 236 237 240 243 244 243 243 242 240 237 235 231 223 217 215 215 219 228 231 225 212 196 180 170 165 160 153 150 149 150
284 282 282 283 283 281 277 276 278 279 274 270 271 274 276 279 281 281 280 278 273 268 263 259 255 254 255 255 254 253 252 253 253 251 249 249 250 251 250 250 249 245 238 233 233 235 237 240 243 243 240 237 235 232 226 215 201 195 197 196 196 205 215 223 221 204 181 166 162 159 153 151 149 147
290 288 288 286 285 285 283 278 275 276 278 279 281 283 283 281 280 279 281 282 277 269 264 262 259 256 255 254 252 251 252 253 253 252 249 249 250 249 247 247 248 245 237 232 234 237 237 236 237 238 236 234 234 229 217 203 190 183 182 178 175 179 184 187 189 184 171 164 166 164 158 154 150 149
301 296 292 288 285 284 286 285 281 278 278 279 281 284 279 270 267 273 280 282 274 262 257 257 257 257 259 258 257 257 256 254 252 251 248 245 244 244 244 247 250 249 241 239 240 242 239 235 235 236 231 228 228 222 205 191 184 179 173 165 160 161 164 165 166 166 165 166 169 167 162 161 160 161
310 302 295 290 284 278 277 277 275 271 269 270 274 277 273 268 269 272 272 267 259 258 265 268 265 263 262 261 260 258 257 256 254 250 247 244 241 239 240 245 249 249 246 243 242 243 243 238 234 234 226 217 216 211 195 181 173 168 163 160 157 157 158 159 161 162 163 164 164 161 161 165 168 165
317 314 307 299 289 281 276 271 264 262 265 272 276 277 273 269 265 258 244 239 261 276 279 279 276 270 267 266 265 263 260 258 255 251 248 245 240 237 237 241 242 241 241 239 234 231 228 220 213 215 210 199 193 189 179 171 164 157 152 152 154 154 154 154 156 156 152 148 147 149 150 151 152 148
Height
1522 1521 1521 1521 1520 1521 1521 1521 1522 1523 1524 1525 1525 1526 1526 1526 1526 1525 1524 1522 1523 1524 1525 1525 1525 1526 1526 1526 1527 1527 1527 1527 1528 1528 1528 1528 1528 1529 1530 1530 1531 1531 1532 1533 1534 1534 1535 1536 1537 1538 1538 1539 1539 1540 1540 1540 1540 1541 1541 1541 1542 1542 1542 1542 1542 1542 1542 1543 1543 1543 1544 1544 1544 1544
1519 1519 1519 1519 1518 1518 1519 1519 1520 1521 1522 1521 1521 1522 1523 1524 1524 1524 1523 1520 1520 1521 1522 1523 1523 1523 1524 1524 1524 1525 1525 1526 1526 1526 1526 1526 1526 1527 1528 1528 1529 1529 1530 1530 1531 1532 1533 1534 1535 1536 1536 1537 1537 1538 1538 1538 1538 1538 1539 1539 1539 1540 1540 1540 1540 1540 1540 1540 1541 1541 1541 1541 1541 1541
1517 1517 1516 1516 1516 1517 1518 1518 1518 1519 1518 1517 1517 1518 1519 1519 1521 1523 1523 1519 1517 1518 1519 1520 1521 1522 1522 1522 1522 1522 1523 1524 1524 1524 1524 1524 1525 1525 1525 1526 1526 1527 1528 1528 1529 1530 1531 1532 1533 1533 1534 1534 1535 1535 1536 1536 1536 1536 1536 1537 1537 1537 1538 1538 1538 1538 1538 1538 1539 1539 1539 1539 1539 1539
1515 1515 1514 1514 1514 1515 1515 1515 1515 1516 1516 1515 1516 1516 1515 1515 1517 1519 1521 1519 1515 1515 1516 1517 1518 1519 1520 1520 1520 1520 1521 1521 1522 1522 1522 1522 1523 1523 1523 1524 1524 1525 1525 1526 1527 1527 1528 1529 1530 1531 1532 1532 1533 1533 1534 1534 1534 1534 1534 1535 1535 1535 1535 1535 1536 1536 1536 1536 1537 1537 1536 1536 1536 1536
1513 1512 1512 1512 1512 1513 1513 1512 1512 1513 1513 1513 1513 1513 1513 1513 1514 1516 1518 1517 1514 1512 1513 1514 1515 1516 1517 1517 1518 1518 1519 1519 1520 1520 1520 1520 1521 1521 1521 1522 1522 1523 1523 1524 1524 1525 1526 1527 1528 1529 1529 1530 1530 1531 1531 1531 1532 1532 1532 1532 1533 1533 1533 1533 1533 1533 1534 1534 1534 1534 1534 1534 1534 1534
1511 1510 1509 1510 1510 1511 1510 1510 1510 1510 1510 1510 1510 1510 1511 1510 1511 1513 1515 1515 1512 1509 1509 1510 1511 1513 1514 1514 1515 1516 1517 1517 1517 1517 1518 1518 1519 1519 1519 1519 1520 1521 1521 1522 1522 1523 1524 1524 1525 1526 1527 1527 1528 1528 1529 1529 1529 1529 1529 1530 1530 1530 1531 1531 1531 1531 1531 1532 1532 1532 1532 1532 1531 1531
1508 1508 1507 1507 1508 1508 1508 1508 1508 1508 1508 1508 1507 1508 1508 1508 1509 1510 1511 1511 1509 1506 1505 1507 1508 1509 1510 1511 1513 1514 1514 1515 1515 1515 1515 1516 1516 1517 1517 1517 1518 1518 1519 1520 1520 1521 1521 1522 1523 1523 1524 1525 1525 1526 1526 1526 1526 1527 1527 1527 1527 1528 1528 1529 1529 1529 1529 1529 1529 1530 1530 1529 1529 1528
1505 1505 1505 1505 1505 1505 1505 1505 1505 1505 1505 1505 1505 1504 1505 1505 1506 1506 1506 1505 1504 1503 1502 1502 1504 1506 1507 1508 1509 1511 1512 1512 1513 1513 1513 1513 1514 1515 1515 1515 1516 1516 1517 1517 1518 1518 1519 1519 1520 1521 1522 1522 1523 1523 1524 1524 1524 1524 1524 1525 1525 1526 1526 1526 1526 1526 1527 1527 1527 1527 1527 1526 1526 1526
1502 1502 1502 1502 1502 1502 1502 1502 1502 1502 1502 1502 1502 1501 1501 1502 1502 1501 1501 1500 1500 1500 1498 1499 1501 1502 1503 1505 1506 1508 1509 1509 1510 1510 1510 1511 1511 1512 1512 1513 1513 1514 1515 1515 1515 1516 1516 1517 1517 1518 1519 1520 1520 1521 1521 1521 1522 1522 1522 1522 1523 1523 1524 1524 1524 1524 1524 1524 1524 1524 1524 1523 1522 1523
1500 1499 1499 1499 1499 1499 1499 1499 1499 1499 1499 1499 1498 1498 1498 1498 1498 1497 1497 1496 1496 1496 1495 1496 1497 1499 1500 1501 1502 1504 1506 1506 1506 1507 1508 1508 1508 1509 1509 1510 1511 1512 1512 1512 1513 1513 1514 1514 1515 1516 1516 1517 1518 1518 1519 1519 1519 1519 1519 1520 1520 1521 1522 1522 1522 1522 1522 1521 1521 1521 1521 1520 1519 1520
1497 1496 1496 1496 1496 1496 1496 1496 1496 1496 1496 1496 1495 1495 1495 1495 1495 1494 1494 1493 1493 1493 1493 1493 1494 1495 1497 1498 1499 1501 1502 1503 1503 1504 1504 1505 1505 1506 1506 1507 1508 1509 1509 1510 1510 1511 1511 1512 1512 1513 1514 1514 1515 1516 1516 1516 1516 1517 1517 1517 1518 1519 1519 1520 1520 1519 1519 1519 1518 1518 1518 1517 1516 1516
1495 1494 1494 1493 1493 1493 1493 1493 1494 1493 1493 1493 1492 1492 1492 1492 1492 1491 1491 1491 1491 1490 1490 1490 1491 1491 1493 1494 1495 1497 1498 1498 1499 1500 1501 1501 1502 1503 1504 1504 1505 1506 1506 1507 1507 1508 1509 1509 1510 1510 1511 1511 1512 1513 1513 1513 1513 1514 1514 1515 1516 1516 1517 1517 1517 1517 1516 1516 1515 1515 1515 1514 1513 1513
1492 1491 1491 1490 1490 1490 1490 1490 1490 1490 1490 1490 1490 1489 1489 1489 1489 1488 1488 1488 1488 1488 1488 1487 1487 1488 1488 1490 1491 1492 1493 1494 1495 1498 1498 1498 1498 1500 1500 1501 1502 1502 1503 1504 1504 1505 1506 1506 1507 1508 1508 1509 1509 1510 1510 1510 1511 1511 1511 1512 1513 1514 1514 1514 1515 1514 1513 1513 1512 1512 1512 1512 1511 1511
1488 1488 1488 1488 1487 1487 1487 1487 1487 1487 1487 1487 1486 1487 1486 1486 1486 1486 1486 1485 1485 1486 1485 1485 1485 1485 1484 1486 1487 1488 1489 1491 1493 1494 1495 1494 1495 1497 1496 1497 1498 1499 1500 1500 1501 1502 1503 1503 1504 1504 1505 1506 1506 1507 1507 1507 1508 1508 1509 1509 1510 1511 1511 1512 1512 1511 1511 1510 1509 1510 1510 1509 1509 1508
1484 1484 1485 1484 1484 1484 1484 1484 1484 1484 1484 1484 1483 1483 1483 1483 1483 1483 1483 1483 1483 1483 1482 1482 1482 1482 1481 1482 1483 1485 1486 1487 1489 1490 1491 1491 1492 1493 1492 1493 1494 1495 1497 1497 1498 1498 1500 1500 1501 1501 1502 1503 1504 1504 1505 1505 1505 1505 1505 1506 1507 1507 1508 1509 1509 1509 1508 1507 1507 1507 1507 1507 1506 1506
1481 1481 1481 1481 1481 1481 1481 1481 1480 1480 1480 1480 1480 1480 1480 1480 1480 1480 1480 1480 1480 1480 1479 1478 1478 1479 1478 1478 1479 1481 1482 1483 1484 1485 1487 1488 1488 1489 1489 1489 1491 1492 1494 1494 1495 1495 1496 1497 1497 1498 1499 1500 1501 1501 1502 1502 1502 1502 1503 1503 1504 1504 1505 1505 1506 1506 1505 1505 1504 1504 1505 1504 1504 1504
1477 1477 1477 1477 1476 1477 1477 1477 1477 1477 1477 1477 1477 1477 1476 1476 1476 1477 1477 1477 1476 1477 1476 1475 1474 1475 1475 1475 1475 1477 1478 1479 1480 1481 1482 1483 1484 1485 1485 1486 1487 1489 1490 1491 1491 1492 1492 1493 1494 1494 1496 1497 1497 1498 1499 1499 1500 1500 1500 1500 1501 1501 1502 1502 1503 1503 1502 1502 1502 1502 1502 1502 1502 1502
1474 1474 1473 1473 1472 1473 1473 1473 1473 1473 1473 1473 1473 1473 1472 1472 1473 1473 1473 1473 1473 1473 1473 1472 1471 1471 1472 1472 1472 1473 1475 1475 1476 1476 1477 1478 1480 1481 1481 1482 1484 1485 1486 1487 1488 1487 1488 1490 1490 1491 1492 1493 1494 1495 1496 1496 1497 1497 1498 1498 1498 1498 1499 1499 1499 1499 1499 1499 1499 1499 1499 1499 1499 1499
1470 1470 1470 1469 1469 1469 1469 1469 1470 1470 1469 1469 1468 1468 1468 1468 1468 1468 1469 1469 1469 1469 1469 1468 1467 1467 1468 1469 1469 1469 1471 1471 1472 1472 1473 1474 1476 1477 1477 1478 1479 1479 1481 1483 1483 1483 1484 1486 1487 1487 1489 1490 1490 1491 1492 1493 1494 1495 1495 1495 1495 1496 1496 1496 1496 1496 1496 1497 1497 1497 1497 1497 1497 1497
1467 1466 1466 1465 1465 1465 1465 1465 1466 1466 1465 1465 1464 1464 1464 1464 1464 1464 1465 1465 1465 1465 1464 1464 1464 1463 1464 1465 1465 1465 1466 1467 1468 1469 1469 1470 1471 1472 1472 1472 1473 1474 1475 1478 1479 1479 1480 1482 1483 1484 1485 1486 1487 1488 1489 1490 1491 1492 1492 1493 1493 1493 1493 1493 1493 1493 1493 1494 1494 1494 1495 1495 1495 1495
1463 1463 1462 1462 1461 1461 1461 1461 1461 1462 1461 1461 1460 1460 1460 1460 1459 1459 1460 1461 1460 1460 1460 1460 1460 1459 1460 1460 1460 1461 1462 1462 1464 1465 1464 1464 1466 1466 1467 1467 1468 1469 1470 1472 1474 1475 1475 1477 1479 1480 1481 1482 1483 1484 1485 1486 1487 1488 1489 1490 1490 1490 1490 1490 1490 1490 1491 1491 1492 1492 1492 1493 1493 1493
1459 1459 1459 1458 1458 1457 1457 1457 1457 1458 1457 1457 1456 1456 1456 1455 1455 1455 1456 1456 1456 1455 1455 1455 1455 1455 1455 1456 1455 1456 1457 1458 1459 1460 1459 1459 1461 1462 1462 1462 1463 1464 1465 1467 1470 1470 1470 1473 1475 1476 1477 1478 1478 1480 1481 1482 1484 1485 1486 1487 1487 1488 1488 1487 1487 1488 1488 1488 1489 1490 1490 1491 1491 1492
1455 1455 1455 1455 1454 1453 1453 1453 1453 1453 1453 1452 1452 1452 1452 1451 1451 1451 1452 1451 1451 1451 1451 1451 1451 1450 1451 1451 1451 1451 1452 1453 1454 1454 1453 1454 1455 1456 1456 1457 1458 1459 1459 1462 1465 1466 1466 1469 1471 1472 1473 1474 1474 1475 1477 1478 1480 1481 1483 1484 1484 1485 1485 1485 1485 1485 1485 1486 1486 1487 1488 1488 1489 1490
1450 1450 1450 1450 1450 1450 1450 1450 1449 1449 1449 1448 1448 1448 1447 1446 1447 1448 1448 1447 1447 1447 1446 1446 1446 1445 1446 1446 1446 1446 1447 1448 1448 1448 1448 1449 1450 1450 1450 1451 1453 1452 1452 1457 1461 1462 1462 1465 1466 1467 1469 1470 1469 1471 1473 1474 1476 1478 1479 1480 1481 1482 1482 1482 1482 1482 1482 1483 1484 1485 1485 1486 1486 1487
1446 1446 1446 1446 1446 1446 1446 1445 1445 1445 1445 1444 1444 1443 1443 1443 1443 1443 1443 1443 1443 1442 1442 1442 1441 1441 1441 1441 1441 1442 1442 1442 1443 1443 1443 1444 1445 1445 1446 1447 1448 1447 1448 1452 1457 1458 1459 1461 1462 1463 1465 1466 1466 1466 1468 1470 1472 1474 1475 1477 1478 1479 1479 1479 1479 1479 1480 1481 1481 1482 1483 1483 1484 1485
1441 1441 1441 1441 1442 1442 1442 1441 1441 1441 1441 1440 1439 1439 1439 1439 1439 1439 1438 1438 1438 1437 1437 1437 1437 1437 1437 1437 1437 1437 1437 1437 1438 1439 1439 1440 1440 1440 1441 1442 1443 1443 1444 1448 1452 1454 1455 1456 1457 1458 1460 1461 1461 1462 1464 1466 1468 1470 1471 1473 1474 1475 1476 1476 1477 1477 1477 1478 1479 1480 1481 1482 1482 1483
1437 1436 1436 1436 1437 1438 1437 1437 1437 1436 1436 1435 1435 1435 1435 1435 1435 1435 1434 1434 1433 1433 1433 1432 1432 1432 1432 1432 1432 1432 1432 1433 1434 1434 1435 1435 1436 1436 1437 1438 1439 1440 1441 1444 1447 1449 1450 1450 1452 1454 1455 1457 1457 1458 1460 1461 1463 1465 1467 1469 1470 1472 1472 1473 1474 1474 1474 1475 1476 1478 1479 1479 1480 1480
1432 1432 1432 1432 1432 1433 1433 1432 1432 1432 1431 1431 1431 1431 1431 1431 1431 1430 1430 1430 1429 1428 1428 1428 1427 1427 1427 1428 1428 1428 1428 1429 1429 1430 1431 1431 1432 1432 1432 1433 1434 1436 1437 1440 1442 1444 1444 1444 1447 1450 1451 1452 1453 1454 1455 1457 1458 1461 1463 1465 1466 1467 1468 1469 1470 1471 1471 1472 1473 1474 1475 1475 1476 1477
1429 1428 1427 1427 1427 1428 1428 1428 1427 1427 1427 1426 1426 1426 1426 1426 1426 1426 1426 1425 1425 1424 1423 1422 1422 1422 1422 1423 1423 1424 1425 1424 1425 1425 1426 1426 1427 1428 1428 1428 1429 1430 1432 1435 1437 1439 1439 1439 1443 1446 1447 1447 1448 1449 1451 1452 1454 1456 1458 1460 1462 1463 1464 1465 1466 1467 1468 1469 1470 1471 1471 1472 1473 1473
1425 1424 1423 1423 1423 1423 1423 1423 1422 1422 1422 1422 1422 1422 1422 1421 1421 1421 1421 1421 1420 1419 1418 1418 1417 1417 1417 1418 1418 1419 1420 1420 1420 1421 1421 1422 1423 1424 1424 1424 1424 1425 1427 1430 1432 1433 1435 1437 1440 1443 1443 1443 1443 1445 1447 1448 1449 1451 1453 1456 1457 1459 1460 1461 1462 1463 1464 1465 1467 1468 1468 1469 1470 1471
1421 1420 1419 1418 1418 1418 1418 1418 1417 1417 1417 1417 1417 1417 1417 1417 1416 1417 1416 1416 1415 1414 1413 1413 1413 1412 1413 1414 1414 1414 1415 1415 1415 1416 1417 1418 1419 1420 1421 1420 1420 1421 1423 1425 1426 1428 1431 1433 1437 1440 1440 1439 1439 1441 1443 1444 1445 1446 1449 1451 1453 1454 1456 1457 1458 1459 1461 1462 1464 1465 1465 1466 1467 1469
1417 1416 1415 1414 1414 1413 1413 1413 1413 1412 1412 1412 1411 1411 1411 1411 1411 1411 1411 1411 1410 1409 1409 1409 1408 1408 1409 1409 1409 1409 1410 1410 1410 1411 1412 1413 1415 1417 1417 1416 1416 1417 1419 1421 1422 1424 1426 1429 1431 1434 1437 1437 1436 1438 1440 1440 1441 1442 1445 1447 1449 1450 1451 1453 1454 1456 1457 1459 1460 1462 1463 1464 1465 1467
1413 1412 1411 1410 1409 1409 1409 1409 1408 1408 1407 1407 1406 1406 1406 1406 1406 1406 1406 1406 1405 1405 1405 1404 1404 1404 1405 1404 1404 1405 1405 1405 1405 1406 1407 1408 1411 1413 1413 1412 1412 1414 1415 1416 1417 1419 1421 1423 1425 1428 1431 1432 1432 1434 1436 1436 1437 1439 1441 1443 1444 1446 1447 1448 1450 1452 1453 1454 1455 1458 1460 1461 1462 1464
1409 1408 1407 1406 1405 1405 1404 1404 1404 1403 1403 1402 1402 1401 1401 1401 1401 1401 1401 1401 1401 1401 1400 1400 1400 1401 1401 1400 1400 1401 1401 1401 1402 1403 1403 1404 1406 1407 1408 1408 1408 1409 1410 1412 1413 1415 1417 1419 1421 1423 1425 1426 1427 1429 1431 1432 1434 1436 1437 1439 1441 1442 1443 1445 1447 1448 1449 1450 1451 1453 1456 1459 1460 1462
1406 1405 1404 1402 1401 1401 1400 1400 1399 1399 1398 1398 1397 1397 1397 1397 1397 1397 1396 1396 1397 1397 1397 1397 1397 1397 1396 1396 1396 1397 1397 1398 1399 1400 1400 1400 1401 1402 1403 1403 1404 1405 1406 1408 1409 1411 1413 1415 1417 1419 1420 1421 1423 1425 1426 1428 1430 1432 1433 1435 1437 1438 1439 1441 1443 1445 1447 1448 1448 1448 1450 1453 1457 1460
1401 1401 1400 1399 1398 1397 1396 1395 1394 1394 1393 1393 1393 1393 1392 1392 1392 1392 1392 1392 1392 1392 1392 1392 1392 1392 1392 1392 1392 1393 1393 1394 1395 1396 1396 1397 1397 1398 1398 1399 1400 1401 1402 1403 1405 1407 1409 1411 1413 1415 1416 1418 1420 1420 1421 1423 1425 1427 1430 1432 1433 1434 1436 1438 1440 1443 1445 1447 1448 1448 1448 1449 1452 1456
1396 1396 1396 1395 1394 1393 1391 1390 1390 1389 1389 1389 1389 1388 1387 1387 1387 1388 1388 1388 1388 1388 1388 1388 1387 1387 1388 1388 1388 1389 1389 1390 1391 1392 1392 1393 1394 1394 1394 1395 1396 1397 1398 1399 1401 1403 1405 1407 1409 1411 1413 1416 1417 1417 1417 1420 1422 1424 1426 1429 1430 1431 1433 1435 1438 1441 1444 1446 1449 1450 1450 1450 1453 1457
1392 1391 1391 1390 1389 1388 1387 1386 1385 1385 1385 1385 1385 1384 1384 1384 1384 1384 1384 1384 1383 1383 1383 1383 1383 1383 1384 1384 1384 1385 1385 1386 1387 1388 1388 1389 1390 1390 1391 1391 1392 1394 1395 1396 1398 1400 1401 1404 1406 1408 1410 1413 1413 1413 1414 1417 1420 1422 1424 1425 1427 1428 1430 1433 1435 1439 1442 1446 1450 1453 1455 1455 1457 1460
1387 1387 1387 1386 1385 1384 1383 1382 1382 1381 1381 1381 1381 1381 1381 1381 1381 1381 1381 1381 1381 1380 1380 1379 1380 1380 1380 1380 1380 1381 1381 1382 1383 1384 1384 1386 1387 1387 1388 1388 1389 1390 1391 1392 1394 1396 1398 1400 1403 1405 1407 1408 1409 1410 1411 1414 1417 1419 1421 1422 1424 1425 1427 1429 1432 1436 1440 1444 1447 1451 1454 1455 1457 1461
1384 1383 1383 1382 1381 1381 1380 1380 1379 1379 1379 1379 1379 1379 1380 1380 1380 1380 1380 1379 1379 1378 1377 1377 1377 1377 1377 1377 1377 1377 1377 1378 1378 1379 1380 1382 1383 1384 1384 1385 1385 1386 1387 1388 1390 1392 1394 1396 1399 1401 1403 1404 1406 1408 1410 1412 1414 1416 1417 1419 1421 1423 1424 1427 1429 1432 1436 1440 1444 1447 1451 1454 1457 1461
1381 1380 1380 1379 1378 1378 1378 1378 1377 1377 1376 1377 1377 1378 1378 1378 1378 1378 1378 1378 1377 1376 1375 1374 1374 1374 1374 1374 1374 1373 1373 1373 1374 1375 1376 1377 1378 1379 1380 1381 1382 1382 1383 1384 1386 1388 1390 1392 1395 1397 1399 1401 1403 1405 1407 1409 1410 1412 1414 1416 1419 1421 1424 1426 1428 1430 1434 1440 1444 1447 1452 1455 1458 1461
1379 1378 1377 1376 1376 1375 1375 1375 1375 1375 1375 1375 1375 1375 1376 1375 1375 1375 1375 1375 1374 1373 1372 1372 1371 1371 1370 1370 1370 1370 1370 1370 1370 1371 1372 1373 1374 1375 1376 1377 1378 1379 1380 1381 1383 1385 1387 1389 1392 1394 1395 1397 1398 1401 1402 1404 1406 1408 1411 1414 1418 1421 1425 1429 1431 1433 1436 1441 1443 1445 1449 1453 1457 1461
1376 1375 1374 1374 1373 1372 1372 1372 1372 1373 1373 1373 1373 1372 1372 1371 1370 1370 1370 1370 1369 1369 1369 1369 1369 1368 1368 1368 1367 1367 1366 1366 1366 1367 1368 1369 1370 1371 1372 1373 1374 1377 1378 1379 1381 1383 1385 1387 1389 1391 1392 1393 1395 1397 1399 1400 1402 1405 1408 1412 1417 1421 1424 1428 1433 1435 1438 1441 1444 1446 1448 1451 1455 1460
1373 1372 1371 1370 1370 1369 1369 1369 1370 1370 1370 1370 1370 1370 1369 1368 1367 1366 1366 1366 1366 1367 1368 1367 1366 1365 1365 1364 1363 1363 1362 1362 1362 1362 1363 1364 1365 1367 1368 1370 1372 1374 1376 1377 1379 1381 1383 1385 1387 1388 1390 1392 1393 1395 1397 1399 1402 1404 1407 1410 1415 1420 1424 1427 1432 1436 1440 1444 1448 1451 1453 1456 1458 1462
1371 1369 1368 1367 1366 1366 1366 1366 1367 1367 1368 1369 1369 1368 1367 1366 1365 1364 1364 1364 1365 1366 1366 1365 1364 1362 1361 1360 1359 1358 1358 1357 1357 1357 1357 1359 1360 1362 1365 1367 1369 1371 1373 1375 1377 1379 1381 1383 1385 1386 1389 1391 1393 1395 1397 1399 1402 1405 1408 1411 1415 1421 1426 1430 1434 1439 1444 1449 1453 1456 1458 1460 1463 1466